Regional Weather Roundup
Issued by NWS Kansas City/Pleasant Hill, MO

Home | Current Version | Previous Version | Text Only | Print | Product List | Glossary On
Versions: 1 2 3 4 5 6 7 8 9 10 11 12 13 14 15 16 17 18 19 20 21 22 23 24 25 26 27 28 29 30 31 32 33 34 35 36 37 38 39 40 41 42 43 44 45 46 47 48 49 50
000
ASUS43 KEAX 220604
RWREAX

WEATHER ROUNDUP FOR EASTERN KANSAS AND NORTHWEST MISSOURI
NATIONAL WEATHER SERVICE KANSAS CITY/PLEASANT HILL MO
100 AM CDT TUE JUL 22 2014

KSZ040-057-103>105-MOZ028-029-037-043-220700-
...KANSAS CITY METROPOLITAN AREA...

CITY           SKY/WX    TMP DP  RH WIND       PRES   REMARKS
K.C. INTL      PTCLDY    80  74  81 S14       29.98S
6HR MIN TEMP:  80; 6HR MAX TEMP:  89;

K.C. DOWNTOWN  CLEAR     83  74  74 S10       29.98R
6HR MIN TEMP:  83; 6HR MAX TEMP:  92;

LEES SUMMIT    PTCLDY    80  72  76 SW9       30.01S
6HR MIN TEMP:  80; 6HR MAX TEMP:  89;

OLATHE - IXD   PTCLDY    79  73  82 S13       30.01S
6HR MIN TEMP:  79; 6HR MAX TEMP:  91;

OLATHE - OJC   PTCLDY    78  73  84 S8        30.00F
6HR MIN TEMP:  78; 6HR MAX TEMP:  89;

LAWRENCE       PTCLDY    82  74  76 S6        29.98F

$$

MOZ001>008-011>017-020>025-030>033-038>040-044>046-053-054-220700-
...NORTHERN AND CENTRAL MISSOURI...

CITY           SKY/WX    TMP DP  RH WIND       PRES   REMARKS
ST. JOSEPH     CLEAR     82  74  76 S15       29.95S
6HR MIN TEMP:  81; 6HR MAX TEMP:  90;

MOSBY          PTCLDY    79  73  83 SE3       29.99S
WHITEMAN AFB   CLEAR     74  63  67 S8        30.03R
6HR MIN TEMP:  74; 6HR MAX TEMP:  87;

CLINTON        CLEAR     77  72  83 S6        30.04R
SEDALIA        CLEAR     76  68  76 S9        30.04S
6HR MIN TEMP:  76; 6HR MAX TEMP:  88;

WARSAW         NOT AVBL
MARSHALL       CLEAR     75  73  94 S5        30.03R
CHILLICOTHE      N/A     80  73  79 S6        30.00R
6HR MIN TEMP:  80; 6HR MAX TEMP:  89;

KIRKSVILLE     CLEAR     73  69  87 S8        30.03R
6HR MIN TEMP:  72; 6HR MAX TEMP:  85;


$$

MOZ041-047>049-056>058-063>065-088>090-097-220700-
...EASTERN AND SOUTHERN MISSOURI...

CITY           SKY/WX    TMP DP  RH WIND       PRES   REMARKS
ST. LOUIS INTL CLEAR     78  65  63 S7        30.07R
6HR MIN TEMP:  78; 6HR MAX TEMP:  87;

SPIRIT OF STL  CLEAR     73  66  78 W3        30.06R
COLUMBIA       CLEAR     72  68  87 S7        30.06R
JEFFERSON CITY CLEAR     75  67  76 E3        30.04R
HANNIBAL       CLEAR     75  64  69 SE5       30.05S
ROLLA          CLEAR     71  65  81 S7        30.07S
LEBANON        CLEAR     72  66  83 S7        30.09S
OSAGE BEACH    CLEAR     73  66  78 S5        30.06S
SPRINGFIELD    CLEAR     74  66  76 SE12      30.08S
BRANSON        CLEAR     72  68  88 SE5       30.11S
NEVADA         CLEAR     72  70  94 S5        30.05S
JOPLIN         CLEAR     77  72  84 S8        30.06R
WEST PLAINS    CLEAR     68  64  87 CALM      30.11S

$$

IAZ060-094-KSZ022-034>040-054-083-096-NEZ052-066-093-220700-
...KANSAS...SOUTHEAST NEBRASKA AND IOWA...

CITY           SKY/WX    TMP DP  RH WIND       PRES   REMARKS
TOPEKA         PTCLDY    83  75  77 S8        29.97F HX  90
6HR MIN TEMP:  83; 6HR MAX TEMP:  94;

MANHATTAN      CLOUDY    82  73  74 S9        29.96S
EMPORIA        MOCLDY    77  74  90 S10       30.01S
CHANUTE        PTCLDY    75  72  90 S7        30.03F
WICHITA        CLOUDY    81  75  82 S14       30.01S
OMAHA          CLOUDY    85  74  69 SE10      29.88R HX  92
LINCOLN        CLOUDY    87  70  56 SW14      29.92R HX  92
FALLS CITY     PTCLDY    82  73  74 SW16      29.92S
LAMONI         PTCLDY    78  75  90 S10       29.97R
DES MOINES     PTCLDY    82  75  79 S13G21    29.92R

$$



USA.gov is the U.S. government's official web portal to all federal, state and local government web resources and services.